Skip Page Navigation
NASA JPL Caltech
NASA Logo - Jet Propulsion Laboratory + View the NASA Portal
+ Center for Near-Earth Object Studies
JPL Home Earth Solar System Stars & Galaxies Technology
JPL Solar System Dynamics
BODIES ORBITS EPHEMERIDES TOOLS PHYSICAL DATA DISCOVERY FAQ SITE MAP
IMPORTANT: The SSD Announcement email list is now available. Major changes are coming in the near future, including possible hostname and/or URL changes. To be notified of such changes, subscribe to this email list.

Please visit this page for more details.


JPL Small-Body Database Browser
Search: [ help ]  
97834 (2000 PN6)
Classification: Mars-crossing Asteroid          SPK-ID: 2097834
Ephemeris | Orbit Diagram | Orbital Elements | Mission Design | Physical Parameters | Discovery Circumstances | Close-Approach Data ]

[ show orbit diagram ]
Orbital Elements at Epoch 2459000.5 (2020-May-31.0) TDB
Reference: JPL 16 (heliocentric ecliptic J2000)
 Element Value Uncertainty (1-sigma)   Units 
e .2856121842029784 4.1592e-08  
a 2.302470292030371 1.1729e-08 au
q 1.644856722861107 9.6093e-08 au
i 22.83775218180426 5.5449e-06 deg
node 148.5096370192328 1.2696e-05 deg
peri 280.6591403336333 1.5919e-05 deg
M 198.0128671231618 1.0945e-05 deg
tp 2459574.705697909745
(2021-Dec-26.20569791)
4.1546e-05 TDB
period 1276.114019529421
3.49
9.7513e-06
2.67e-08
d
yr
n .282106453256233 2.1557e-09 deg/d
Q 2.960083861199635 1.508e-08 au
  Orbit Determination Parameters
   # obs. used (total)      653  
   data-arc span      7740 days (21.19 yr)  
   first obs. used      1998-02-25  
   last obs. used      2019-05-06  
   planetary ephem.      DE431  
   SB-pert. ephem.      SB431-N16  
   condition code      0  
   norm. resid. RMS      .51389  
   source      ORB  
   producer      Otto Matic  
   solution date      2019-May-30 06:30:02  

Additional Information
 Earth MOID = .80856 au 
 Jupiter MOID = 2.62024 au 
 T_jup = 3.435 
[ show covariance matrix ]

Ephemeris | Orbit Diagram | Orbital Elements | Mission Design | Physical Parameters | Discovery Circumstances | Close-Approach Data ]

Physical Parameter Table
Parameter Symbol Value Units Sigma Reference Notes
absolute magnitude H 15.2   n/a MPO474856  
diameter diameter 2.154 km 0.471 urn:nasa:pds:neowise_diameters_albedos::2.0[mainbelt] (http://adsabs.harvard.edu/abs/2016AJ....152...63N)  
geometric albedo albedo 0.347   0.211 urn:nasa:pds:neowise_diameters_albedos::2.0[mainbelt] (http://adsabs.harvard.edu/abs/2016AJ....152...63N)  

97834 (2000 PN6)          Discovered 2000-Aug-02 by LINEAR at Socorro
Reference: 20050224/Numbers.arcLast Updated: 2005-02-28

[ show close-approach data ]
Alternate Designations
 2000 PN6 = 1998 FF89 
Ephemeris | Orbit Diagram | Orbital Elements | Mission Design | Physical Parameters | Discovery Circumstances | Close-Approach Data ]
ABOUT SSD CREDITS/AWARDS PRIVACY/COPYRIGHT GLOSSARY LINKS
FirstGov 2020-Feb-26 16:34 UT
(server date/time)  
NASA Home Page
Site Manager:   Ryan S. Park
Webmaster  Alan B. Chamberlin